Time,TemperatureF,DewpointF,PressureIn,WindDirection,WindDirectionDegrees,WindSpeedMPH,WindSpeedGustMPH,Humidity,HourlyPrecipIn,Conditions,Clouds,dailyrainin,SoftwareType,DateUTC
2013-01-26 00:05:00,28.4,23.3,30.25,South,188,3.0,13.0,81,0.00,,,0.00,Wunderground v.1.15,2013-01-26 06:05:00,
2013-01-26 00:10:00,28.2,23.1,30.25,SSW,193,3.0,13.0,81,0.00,,,0.00,Wunderground v.1.15,2013-01-26 06:10:00,
2013-01-26 00:15:00,28.0,22.9,30.25,SW,217,3.0,13.0,81,0.00,,,0.00,Wunderground v.1.15,2013-01-26 06:15:00,
2013-01-26 00:20:00,27.6,22.8,30.25,WSW,257,3.0,3.0,82,0.00,,,0.00,Wunderground v.1.15,2013-01-26 06:20:00,
2013-01-26 00:25:00,27.3,22.5,30.25,West,275,3.0,5.0,82,0.00,,,0.00,Wunderground v.1.15,2013-01-26 06:25:00,
2013-01-26 00:30:00,27.0,22.5,30.25,WNW,297,4.0,13.0,83,0.00,,,0.00,Wunderground v.1.15,2013-01-26 06:30:00,
2013-01-26 00:40:00,27.0,22.8,30.25,WNW,296,3.0,3.0,84,0.00,,,0.00,Wunderground v.1.15,2013-01-26 06:40:00,
2013-01-26 00:45:00,27.0,22.8,30.26,WNW,296,2.0,13.0,84,0.00,,,0.00,Wunderground v.1.15,2013-01-26 06:45:00,
2013-01-26 00:50:00,27.0,22.8,30.26,WNW,296,1.0,1.0,84,0.00,,,0.00,Wunderground v.1.15,2013-01-26 06:50:00,
2013-01-26 00:59:00,26.8,22.6,30.25,WNW,302,2.0,13.0,84,0.00,,,0.00,Wunderground v.1.15,2013-01-26 06:59:00,
2013-01-26 01:05:00,26.6,22.4,30.25,WNW,302,3.0,13.0,84,0.00,,,0.00,Wunderground v.1.15,2013-01-26 07:05:00,
2013-01-26 01:10:00,26.4,22.2,30.25,NNW,336,4.0,4.0,84,0.00,,,0.00,Wunderground v.1.15,2013-01-26 07:10:00,
2013-01-26 01:15:00,26.2,22.0,30.25,WNW,296,3.0,13.0,84,0.00,,,0.00,Wunderground v.1.15,2013-01-26 07:15:00,
2013-01-26 01:20:00,26.1,21.9,30.24,WNW,294,3.0,13.0,84,0.00,,,0.00,Wunderground v.1.15,2013-01-26 07:20:00,
2013-01-26 01:25:00,25.9,22.0,30.25,WNW,297,2.0,13.0,85,0.00,,,0.00,Wunderground v.1.15,2013-01-26 07:25:00,
2013-01-26 01:30:00,25.7,21.8,30.25,WNW,297,2.0,13.0,85,0.00,,,0.00,Wunderground v.1.15,2013-01-26 07:30:00,
2013-01-26 01:35:00,25.5,21.6,30.25,WNW,297,2.0,13.0,85,0.00,,,0.00,Wunderground v.1.15,2013-01-26 07:35:00,
2013-01-26 01:40:00,25.3,21.4,30.25,WNW,297,1.0,13.0,85,0.00,,,0.00,Wunderground v.1.15,2013-01-26 07:40:00,
2013-01-26 01:45:00,25.2,21.3,30.25,WNW,288,1.0,13.0,85,0.00,,,0.00,Wunderground v.1.15,2013-01-26 07:45:00,
2013-01-26 01:54:00,25.0,21.4,30.25,ESE,104,2.0,13.0,86,0.00,,,0.00,Wunderground v.1.15,2013-01-26 07:54:00,
2013-01-26 02:00:00,24.8,21.2,30.25,ESE,104,1.0,13.0,86,0.00,,,0.00,Wunderground v.1.15,2013-01-26 08:00:00,
2013-01-26 02:05:00,24.7,21.1,30.25,ESE,104,1.0,13.0,86,0.00,,,0.00,Wunderground v.1.15,2013-01-26 08:05:00,
2013-01-26 02:10:00,24.5,20.9,30.25,ESE,104,1.0,13.0,86,0.00,,,0.00,Wunderground v.1.15,2013-01-26 08:10:00,
2013-01-26 02:20:00,24.3,21.0,30.25,ESE,104,0.0,13.0,87,0.00,,,0.00,Wunderground v.1.15,2013-01-26 08:20:00,
2013-01-26 02:25:00,24.2,20.9,30.25,ESE,104,0.0,13.0,87,0.00,,,0.00,Wunderground v.1.15,2013-01-26 08:25:00,
2013-01-26 02:30:00,24.2,20.9,30.25,ESE,104,0.0,13.0,87,0.00,,,0.00,Wunderground v.1.15,2013-01-26 08:30:00,
2013-01-26 02:35:00,24.1,20.8,30.25,ESE,104,0.0,13.0,87,0.00,,,0.00,Wunderground v.1.15,2013-01-26 08:35:00,
2013-01-26 02:40:00,24.0,21.0,30.26,ESE,104,0.0,13.0,88,0.00,,,0.00,Wunderground v.1.15,2013-01-26 08:40:00,
2013-01-26 02:50:00,23.9,20.9,30.25,ESE,104,0.0,13.0,88,0.00,,,0.00,Wunderground v.1.15,2013-01-26 08:50:00,
2013-01-26 02:59:00,23.8,20.8,30.25,ESE,104,0.0,13.0,88,0.00,,,0.00,Wunderground v.1.15,2013-01-26 08:59:00,
2013-01-26 03:05:00,23.7,20.7,30.25,ESE,104,0.0,13.0,88,0.00,,,0.00,Wunderground v.1.15,2013-01-26 09:05:00,
2013-01-26 03:10:00,23.6,20.6,30.25,ESE,104,0.0,13.0,88,0.00,,,0.00,Wunderground v.1.15,2013-01-26 09:10:00,
2013-01-26 03:15:00,23.6,20.6,30.24,ESE,103,1.0,13.0,88,0.00,,,0.00,Wunderground v.1.15,2013-01-26 09:15:00,
2013-01-26 03:20:00,23.6,20.8,30.24,East,101,2.0,13.0,89,0.00,,,0.00,Wunderground v.1.15,2013-01-26 09:20:00,
2013-01-26 03:25:00,23.5,20.5,30.25,East,90,2.0,13.0,88,0.00,,,0.00,Wunderground v.1.15,2013-01-26 09:25:00,
2013-01-26 03:30:00,23.3,20.3,30.24,East,91,1.0,13.0,88,0.00,,,0.00,Wunderground v.1.15,2013-01-26 09:30:00,
2013-01-26 03:35:00,23.1,20.3,30.24,East,92,1.0,13.0,89,0.00,,,0.00,Wunderground v.1.15,2013-01-26 09:35:00,
2013-01-26 03:40:00,23.1,20.3,30.24,East,92,1.0,13.0,89,0.00,,,0.00,Wunderground v.1.15,2013-01-26 09:40:00,
2013-01-26 03:49:00,23.0,20.2,30.24,East,92,1.0,1.0,89,0.00,,,0.00,Wunderground v.1.15,2013-01-26 09:49:00,
2013-01-26 03:55:00,23.0,20.2,30.23,East,92,1.0,13.0,89,0.00,,,0.00,Wunderground v.1.15,2013-01-26 09:55:00,
2013-01-26 04:05:00,22.7,19.9,30.23,East,92,1.0,13.0,89,0.00,,,0.00,Wunderground v.1.15,2013-01-26 10:05:00,
2013-01-26 04:10:00,22.7,19.9,30.23,East,90,2.0,13.0,89,0.00,,,0.00,Wunderground v.1.15,2013-01-26 10:10:00,
2013-01-26 04:15:00,22.6,19.6,30.23,East,96,2.0,13.0,88,0.00,,,0.00,Wunderground v.1.15,2013-01-26 10:15:00,
2013-01-26 04:20:00,22.6,19.6,30.22,East,96,2.0,2.0,88,0.00,,,0.00,Wunderground v.1.15,2013-01-26 10:20:00,
2013-01-26 04:25:00,22.6,19.8,30.22,East,96,2.0,13.0,89,0.00,,,0.00,Wunderground v.1.15,2013-01-26 10:25:00,
2013-01-26 04:35:00,22.5,19.5,30.22,East,96,1.0,13.0,88,0.00,,,0.00,Wunderground v.1.15,2013-01-26 10:35:00,
2013-01-26 04:40:00,22.5,19.5,30.22,East,96,1.0,1.0,88,0.00,,,0.00,Wunderground v.1.15,2013-01-26 10:40:00,
2013-01-26 04:49:00,22.4,19.4,30.22,East,96,1.0,13.0,88,0.00,,,0.00,Wunderground v.1.15,2013-01-26 10:49:00,
2013-01-26 04:55:00,22.3,19.3,30.22,East,96,1.0,13.0,88,0.00,,,0.00,Wunderground v.1.15,2013-01-26 10:55:00,
2013-01-26 05:00:00,22.2,19.2,30.22,East,96,1.0,1.0,88,0.00,,,0.00,Wunderground v.1.15,2013-01-26 11:00:00,
2013-01-26 05:10:00,22.0,19.0,30.22,East,96,1.0,1.0,88,0.00,,,0.00,Wunderground v.1.15,2013-01-26 11:10:00,
2013-01-26 05:15:00,22.0,19.0,30.22,East,96,0.0,13.0,88,0.00,,,0.00,Wunderground v.1.15,2013-01-26 11:15:00,
2013-01-26 05:20:00,21.7,18.4,30.22,East,96,0.0,13.0,87,0.00,,,0.00,Wunderground v.1.15,2013-01-26 11:20:00,
2013-01-26 05:25:00,21.5,18.5,30.23,East,96,0.0,13.0,88,0.00,,,0.00,Wunderground v.1.15,2013-01-26 11:25:00,
2013-01-26 05:30:00,21.3,18.3,30.23,East,96,0.0,13.0,88,0.00,,,0.00,Wunderground v.1.15,2013-01-26 11:30:00,
2013-01-26 05:35:00,21.2,18.2,30.23,East,96,0.0,13.0,88,0.00,,,0.00,Wunderground v.1.15,2013-01-26 11:35:00,
2013-01-26 05:45:00,21.0,18.0,30.22,East,96,0.0,13.0,88,0.00,,,0.00,Wunderground v.1.15,2013-01-26 11:45:00,
2013-01-26 05:54:00,20.8,18.1,30.22,East,90,1.0,13.0,89,0.00,,,0.00,Wunderground v.1.15,2013-01-26 11:54:00,
2013-01-26 06:00:00,20.7,18.0,30.22,East,90,0.0,13.0,89,0.00,,,0.00,Wunderground v.1.15,2013-01-26 12:00:00,
2013-01-26 06:05:00,20.7,18.0,30.22,East,90,0.0,13.0,89,0.00,,,0.00,Wunderground v.1.15,2013-01-26 12:05:00,
2013-01-26 06:10:00,20.7,18.0,30.21,East,90,0.0,13.0,89,0.00,,,0.00,Wunderground v.1.15,2013-01-26 12:10:00,
2013-01-26 06:20:00,20.8,18.1,30.21,East,90,0.0,13.0,89,0.00,,,0.00,Wunderground v.1.15,2013-01-26 12:20:00,
2013-01-26 06:25:00,20.8,18.1,30.22,East,91,1.0,13.0,89,0.00,,,0.00,Wunderground v.1.15,2013-01-26 12:25:00,
2013-01-26 06:30:00,20.6,17.9,30.22,East,91,1.0,1.0,89,0.00,,,0.00,Wunderground v.1.15,2013-01-26 12:30:00,
2013-01-26 06:35:00,20.3,17.6,30.22,East,91,0.0,2.0,89,0.00,,,0.00,Wunderground v.1.15,2013-01-26 12:35:00,
2013-01-26 06:40:00,20.1,17.4,30.22,East,91,0.0,13.0,89,0.00,,,0.00,Wunderground v.1.15,2013-01-26 12:40:00,
2013-01-26 06:50:00,19.9,17.4,30.22,East,93,1.0,1.0,90,0.00,,,0.00,Wunderground v.1.15,2013-01-26 12:50:00,
2013-01-26 06:59:00,20.2,17.7,30.22,East,101,2.0,2.0,90,0.00,,,0.00,Wunderground v.1.15,2013-01-26 12:59:00,
2013-01-26 07:05:00,20.4,17.9,30.22,East,101,2.0,5.0,90,0.00,,,0.00,Wunderground v.1.15,2013-01-26 13:05:00,
2013-01-26 07:10:00,20.4,17.9,30.21,East,90,2.0,13.0,90,0.00,,,0.00,Wunderground v.1.15,2013-01-26 13:10:00,
2013-01-26 07:15:00,20.5,18.0,30.21,East,91,2.0,13.0,90,0.00,,,0.00,Wunderground v.1.15,2013-01-26 13:15:00,
2013-01-26 07:25:00,20.4,17.9,30.22,East,91,1.0,13.0,90,0.00,,,0.00,Wunderground v.1.15,2013-01-26 13:25:00,
2013-01-26 07:30:00,20.3,17.8,30.22,East,91,1.0,13.0,90,0.00,,,0.00,Wunderground v.1.15,2013-01-26 13:30:00,
2013-01-26 07:35:00,20.3,17.8,30.22,East,91,1.0,13.0,90,0.00,,,0.00,Wunderground v.1.15,2013-01-26 13:35:00,
2013-01-26 07:40:00,20.2,17.7,30.23,East,91,1.0,1.0,90,0.00,,,0.00,Wunderground v.1.15,2013-01-26 13:40:00,
2013-01-26 07:45:00,20.1,17.6,30.23,East,91,1.0,13.0,90,0.00,,,0.00,Wunderground v.1.15,2013-01-26 13:45:00,
2013-01-26 07:50:00,20.0,17.5,30.23,East,91,1.0,13.0,90,0.00,,,0.00,Wunderground v.1.15,2013-01-26 13:50:00,
2013-01-26 07:59:00,20.1,17.6,30.23,East,86,1.0,13.0,90,0.00,,,0.00,Wunderground v.1.15,2013-01-26 13:59:00,
2013-01-26 08:04:00,20.4,18.2,30.23,East,95,2.0,13.0,91,0.00,,,0.00,Wunderground v.1.15,2013-01-26 14:04:00,
2013-01-26 08:10:00,20.8,18.6,30.23,East,98,2.0,13.0,91,0.00,,,0.00,Wunderground v.1.15,2013-01-26 14:10:00,
2013-01-26 08:15:00,21.3,19.1,30.23,East,94,3.0,13.0,91,0.00,,,0.00,Wunderground v.1.15,2013-01-26 14:15:00,
2013-01-26 08:20:00,21.8,19.6,30.23,East,96,3.0,3.0,91,0.00,,,0.00,Wunderground v.1.15,2013-01-26 14:20:00,
2013-01-26 08:25:00,22.2,19.7,30.23,East,92,3.0,4.0,90,0.00,,,0.00,Wunderground v.1.15,2013-01-26 14:25:00,
2013-01-26 08:35:00,23.3,20.8,30.23,ESE,113,4.0,4.0,90,0.00,,,0.00,Wunderground v.1.15,2013-01-26 14:35:00,
2013-01-26 08:40:00,23.8,21.0,30.22,ESE,115,4.0,13.0,89,0.00,,,0.00,Wunderground v.1.15,2013-01-26 14:40:00,
2013-01-26 08:45:00,24.4,21.6,30.22,ESE,119,6.0,13.0,89,0.00,,,0.00,Wunderground v.1.15,2013-01-26 14:45:00,
2013-01-26 08:50:00,24.9,21.8,30.22,SE,126,8.0,13.0,88,0.00,,,0.00,Wunderground v.1.15,2013-01-26 14:50:00,
2013-01-26 08:59:00,25.4,21.8,30.22,ESE,123,8.0,8.0,86,0.00,,,0.00,Wunderground v.1.15,2013-01-26 14:59:00,
2013-01-26 09:09:00,25.9,22.0,30.22,SE,126,8.0,13.0,85,0.00,,,0.00,Wunderground v.1.15,2013-01-26 15:09:00,
2013-01-26 09:15:00,26.1,21.9,30.22,SE,129,8.0,13.0,84,0.00,,,0.00,Wunderground v.1.15,2013-01-26 15:15:00,
2013-01-26 09:20:00,26.3,22.1,30.22,SE,127,8.0,8.0,84,0.00,,,0.00,Wunderground v.1.15,2013-01-26 15:20:00,
2013-01-26 09:25:00,26.5,22.3,30.22,ESE,123,8.0,13.0,84,0.00,,,0.00,Wunderground v.1.15,2013-01-26 15:25:00,
2013-01-26 09:30:00,26.9,22.7,30.22,ESE,117,7.0,7.0,84,0.00,,,0.00,Wunderground v.1.15,2013-01-26 15:30:00,
2013-01-26 09:40:00,27.8,23.3,30.21,ESE,122,7.0,7.0,83,0.00,,,0.00,Wunderground v.1.15,2013-01-26 15:40:00,
2013-01-26 09:45:00,28.3,23.5,30.21,SE,130,7.0,13.0,82,0.00,,,0.00,Wunderground v.1.15,2013-01-26 15:45:00,
2013-01-26 09:50:00,28.9,23.8,30.21,SE,130,8.0,13.0,81,0.00,,,0.00,Wunderground v.1.15,2013-01-26 15:50:00,
2013-01-26 09:55:00,29.3,23.9,30.21,ESE,121,8.0,13.0,80,0.00,,,0.00,Wunderground v.1.15,2013-01-26 15:55:00,
2013-01-26 10:05:00,30.3,24.3,30.21,SSE,148,8.0,13.0,78,0.00,,,0.00,Wunderground v.1.15,2013-01-26 16:05:00,
2013-01-26 10:15:00,31.5,24.8,30.21,SE,144,8.0,13.0,76,0.00,,,0.00,Wunderground v.1.15,2013-01-26 16:15:00,
2013-01-26 10:20:00,31.7,24.7,30.21,SSE,153,8.0,13.0,75,0.00,,,0.00,Wunderground v.1.15,2013-01-26 16:20:00,
2013-01-26 10:25:00,31.7,24.7,30.21,SE,146,7.0,13.0,75,0.00,,,0.00,Wunderground v.1.15,2013-01-26 16:25:00,
2013-01-26 10:30:00,31.7,24.4,30.21,SSE,149,8.0,13.0,74,0.00,,,0.00,Wunderground v.1.15,2013-01-26 16:30:00,
2013-01-26 10:39:00,32.9,25.2,30.22,SSE,150,8.0,8.0,73,0.00,,,0.00,Wunderground v.1.15,2013-01-26 16:39:00,
2013-01-26 10:49:00,33.8,25.4,30.21,SE,131,7.0,13.0,71,0.00,,,0.00,Wunderground v.1.15,2013-01-26 16:49:00,
2013-01-26 10:55:00,33.9,25.8,30.21,SSE,149,9.0,13.0,72,0.00,,,0.00,Wunderground v.1.15,2013-01-26 16:55:00,
2013-01-26 11:00:00,34.2,25.8,30.22,ESE,123,10.0,10.0,71,0.00,,,0.00,Wunderground v.1.15,2013-01-26 17:00:00,
2013-01-26 11:05:00,34.7,26.3,30.21,SE,127,9.0,14.0,71,0.00,,,0.00,Wunderground v.1.15,2013-01-26 17:05:00,
2013-01-26 11:10:00,35.1,26.3,30.21,SSE,155,8.0,8.0,70,0.00,,,0.00,Wunderground v.1.15,2013-01-26 17:10:00,
2013-01-26 11:15:00,35.3,26.5,30.21,SSE,148,8.0,10.0,70,0.00,,,0.00,Wunderground v.1.15,2013-01-26 17:15:00,
2013-01-26 11:24:00,36.2,26.6,30.20,SE,141,9.0,13.0,68,0.00,,,0.00,Wunderground v.1.15,2013-01-26 17:24:00,
2013-01-26 11:29:00,36.8,26.9,30.19,SE,140,9.0,9.0,67,0.00,,,0.00,Wunderground v.1.15,2013-01-26 17:29:00,
2013-01-26 11:35:00,37.6,27.3,30.19,SSE,155,8.0,13.0,66,0.00,,,0.00,Wunderground v.1.15,2013-01-26 17:35:00,
2013-01-26 11:40:00,38.0,27.6,30.18,SE,136,8.0,8.0,66,0.00,,,0.00,Wunderground v.1.15,2013-01-26 17:40:00,
2013-01-26 11:45:00,38.4,27.7,30.19,SE,143,9.0,12.0,65,0.00,,,0.00,Wunderground v.1.15,2013-01-26 17:45:00,
2013-01-26 11:50:00,38.8,27.7,30.18,ESE,107,8.0,8.0,64,0.00,,,0.00,Wunderground v.1.15,2013-01-26 17:50:00,
2013-01-26 12:00:00,40.4,28.0,30.17,SSE,165,8.0,13.0,61,0.00,,,0.00,Wunderground v.1.15,2013-01-26 18:00:00,
2013-01-26 12:05:00,40.6,27.8,30.17,SSE,165,9.0,13.0,60,0.00,,,0.00,Wunderground v.1.15,2013-01-26 18:05:00,
2013-01-26 12:10:00,41.3,28.0,30.16,SE,142,10.0,10.0,59,0.00,,,0.00,Wunderground v.1.15,2013-01-26 18:10:00,
2013-01-26 12:15:00,41.6,28.3,30.16,SSE,148,9.0,13.0,59,0.00,,,0.00,Wunderground v.1.15,2013-01-26 18:15:00,
2013-01-26 12:20:00,41.9,28.6,30.16,SSE,167,9.0,9.0,59,0.00,,,0.00,Wunderground v.1.15,2013-01-26 18:20:00,
2013-01-26 12:30:00,42.9,28.7,30.15,ESE,120,9.0,13.0,57,0.00,,,0.00,Wunderground v.1.15,2013-01-26 18:30:00,
2013-01-26 12:39:00,43.8,29.1,30.14,SSE,152,11.0,11.0,56,0.00,,,0.00,Wunderground v.1.15,2013-01-26 18:39:00,
2013-01-26 12:45:00,44.4,29.2,30.14,SE,128,11.0,13.0,55,0.00,,,0.00,Wunderground v.1.15,2013-01-26 18:45:00,
2013-01-26 12:50:00,45.3,29.6,30.13,SE,139,10.0,13.0,54,0.00,,,0.00,Wunderground v.1.15,2013-01-26 18:50:00,
2013-01-26 12:55:00,46.0,29.3,30.12,SSE,168,11.0,13.0,52,0.00,,,0.00,Wunderground v.1.15,2013-01-26 18:55:00,
2013-01-26 13:05:00,47.0,29.3,30.11,SSE,155,10.0,13.0,50,0.00,,,0.00,Wunderground v.1.15,2013-01-26 19:05:00,
2013-01-26 13:10:00,47.4,29.2,30.11,SSE,165,11.0,11.0,49,0.00,,,0.00,Wunderground v.1.15,2013-01-26 19:10:00,
2013-01-26 13:15:00,47.8,29.0,30.11,SE,144,11.0,13.0,48,0.00,,,0.00,Wunderground v.1.15,2013-01-26 19:15:00,
2013-01-26 13:20:00,48.1,28.8,30.11,SE,145,11.0,11.0,47,0.00,,,0.00,Wunderground v.1.15,2013-01-26 19:20:00,
2013-01-26 13:25:00,48.8,29.4,30.10,SSE,156,10.0,13.0,47,0.00,,,0.00,Wunderground v.1.15,2013-01-26 19:25:00,
2013-01-26 13:35:00,50.2,29.1,30.10,South,182,10.0,13.0,44,0.00,,,0.00,Wunderground v.1.15,2013-01-26 19:35:00,
2013-01-26 13:44:00,52.7,26.5,30.09,SSE,163,11.0,13.0,36,0.00,,,0.00,Wunderground v.1.15,2013-01-26 19:44:00,
2013-01-26 13:50:00,53.3,26.3,30.09,SSE,157,11.0,11.0,35,0.00,,,0.00,Wunderground v.1.15,2013-01-26 19:50:00,
2013-01-26 13:55:00,53.5,26.5,30.09,SSE,167,11.0,12.0,35,0.00,,,0.00,Wunderground v.1.15,2013-01-26 19:55:00,
2013-01-26 14:00:00,53.4,26.4,30.08,SSE,163,12.0,13.0,35,0.00,,,0.00,Wunderground v.1.15,2013-01-26 20:00:00,
2013-01-26 14:05:00,53.6,26.6,30.08,South,190,12.0,13.0,35,0.00,,,0.00,Wunderground v.1.15,2013-01-26 20:05:00,
2013-01-26 14:15:00,54.4,26.6,30.07,SSE,163,11.0,13.0,34,0.00,,,0.00,Wunderground v.1.15,2013-01-26 20:15:00,
2013-01-26 14:20:00,54.8,26.2,30.07,SSE,155,12.0,13.0,33,0.00,,,0.00,Wunderground v.1.15,2013-01-26 20:20:00,
2013-01-26 14:29:00,55.4,26.0,30.07,SSE,163,14.0,16.0,32,0.00,,,0.00,Wunderground v.1.15,2013-01-26 20:29:00,
2013-01-26 14:35:00,55.6,26.2,30.06,South,175,14.0,16.0,32,0.00,,,0.00,Wunderground v.1.15,2013-01-26 20:35:00,
2013-01-26 14:40:00,55.8,26.3,30.06,South,180,13.0,13.0,32,0.00,,,0.00,Wunderground v.1.15,2013-01-26 20:40:00,
2013-01-26 14:50:00,56.0,25.8,30.06,SSE,165,12.0,14.0,31,0.00,,,0.00,Wunderground v.1.15,2013-01-26 20:50:00,
2013-01-26 14:55:00,56.0,25.8,30.06,SSW,194,13.0,16.0,31,0.00,,,0.00,Wunderground v.1.15,2013-01-26 20:55:00,
2013-01-26 15:00:00,56.0,25.8,30.06,South,185,13.0,15.0,31,0.00,,,0.00,Wunderground v.1.15,2013-01-26 21:00:00,
2013-01-26 15:05:00,56.1,25.8,30.06,South,169,13.0,15.0,31,0.00,,,0.00,Wunderground v.1.15,2013-01-26 21:05:00,
2013-01-26 15:10:00,56.3,25.2,30.05,SSE,157,12.0,12.0,30,0.00,,,0.00,Wunderground v.1.15,2013-01-26 21:10:00,
2013-01-26 15:20:00,56.7,24.8,30.05,South,174,12.0,13.0,29,0.00,,,0.00,Wunderground v.1.15,2013-01-26 21:20:00,
2013-01-26 15:25:00,56.7,24.8,30.04,SSW,192,12.0,13.0,29,0.00,,,0.00,Wunderground v.1.15,2013-01-26 21:25:00,
2013-01-26 15:34:00,56.5,25.4,30.04,SSE,166,14.0,14.0,30,0.00,,,0.00,Wunderground v.1.15,2013-01-26 21:34:00,
2013-01-26 15:39:00,56.5,24.6,30.04,South,172,13.0,14.0,29,0.00,,,0.00,Wunderground v.1.15,2013-01-26 21:39:00,
2013-01-26 15:45:00,56.6,24.7,30.04,South,186,12.0,14.0,29,0.00,,,0.00,Wunderground v.1.15,2013-01-26 21:45:00,
2013-01-26 15:55:00,56.6,23.8,30.04,SSE,154,13.0,16.0,28,0.00,,,0.00,Wunderground v.1.15,2013-01-26 21:55:00,
2013-01-26 16:00:00,56.6,23.8,30.04,SSE,161,13.0,13.0,28,0.00,,,0.00,Wunderground v.1.15,2013-01-26 22:00:00,
2013-01-26 16:05:00,56.7,23.9,30.04,South,186,12.0,13.0,28,0.00,,,0.00,Wunderground v.1.15,2013-01-26 22:05:00,
2013-01-26 16:10:00,56.6,24.7,30.04,SE,142,11.0,11.0,29,0.00,,,0.00,Wunderground v.1.15,2013-01-26 22:10:00,
2013-01-26 16:15:00,56.3,23.6,30.04,SSE,153,12.0,13.0,28,0.00,,,0.00,Wunderground v.1.15,2013-01-26 22:15:00,
2013-01-26 16:25:00,55.9,24.1,30.03,SSE,161,10.0,13.0,29,0.00,,,0.00,Wunderground v.1.15,2013-01-26 22:25:00,
2013-01-26 16:35:00,55.7,23.9,30.03,SSE,163,10.0,12.0,29,0.00,,,0.00,Wunderground v.1.15,2013-01-26 22:35:00,
2013-01-26 16:40:00,55.7,23.9,30.03,SE,144,10.0,13.0,29,0.00,,,0.00,Wunderground v.1.15,2013-01-26 22:40:00,
2013-01-26 16:45:00,55.5,24.5,30.02,SSE,157,8.0,13.0,30,0.00,,,0.00,Wunderground v.1.15,2013-01-26 22:45:00,
2013-01-26 16:50:00,55.3,24.4,30.02,SSE,163,8.0,13.0,30,0.00,,,0.00,Wunderground v.1.15,2013-01-26 22:50:00,
2013-01-26 16:55:00,55.0,24.1,30.02,SSE,167,9.0,14.0,30,0.00,,,0.00,Wunderground v.1.15,2013-01-26 22:55:00,
2013-01-26 17:05:00,54.5,23.7,30.01,SSE,167,9.0,13.0,30,0.00,,,0.00,Wunderground v.1.15,2013-01-26 23:05:00,
2013-01-26 17:10:00,54.4,23.6,30.01,South,180,9.0,9.0,30,0.00,,,0.00,Wunderground v.1.15,2013-01-26 23:10:00,
2013-01-26 17:15:00,54.2,23.4,30.01,SSE,161,9.0,13.0,30,0.00,,,0.00,Wunderground v.1.15,2013-01-26 23:15:00,
2013-01-26 17:24:00,53.7,23.7,30.01,South,185,9.0,15.0,31,0.00,,,0.00,Wunderground v.1.15,2013-01-26 23:24:00,
2013-01-26 17:30:00,53.6,23.7,30.01,SE,144,9.0,13.0,31,0.00,,,0.00,Wunderground v.1.15,2013-01-26 23:30:00,
2013-01-26 17:40:00,53.3,24.2,30.01,SSE,152,9.0,9.0,32,0.00,,,0.00,Wunderground v.1.15,2013-01-26 23:40:00,
2013-01-26 17:45:00,53.1,24.0,30.01,South,176,9.0,13.0,32,0.00,,,0.00,Wunderground v.1.15,2013-01-26 23:45:00,
2013-01-26 17:50:00,53.0,23.9,30.01,SE,142,9.0,13.0,32,0.00,,,0.00,Wunderground v.1.15,2013-01-26 23:50:00,
2013-01-26 17:55:00,52.7,23.6,30.01,SE,144,8.0,13.0,32,0.00,,,0.00,Wunderground v.1.15,2013-01-26 23:55:00,
2013-01-26 18:00:00,52.2,23.9,30.02,SSE,147,7.0,7.0,33,0.00,,,0.00,Wunderground v.1.15,2013-01-27 00:00:00,
2013-01-26 18:10:00,51.8,24.3,30.01,SE,146,8.0,8.0,34,0.00,,,0.00,Wunderground v.1.15,2013-01-27 00:10:00,
2013-01-26 18:15:00,51.5,24.0,30.02,SSE,148,8.0,13.0,34,0.00,,,0.00,Wunderground v.1.15,2013-01-27 00:15:00,
2013-01-26 18:20:00,51.2,24.5,30.01,SE,135,8.0,13.0,35,0.00,,,0.00,Wunderground v.1.15,2013-01-27 00:20:00,
2013-01-26 18:29:00,50.9,24.2,30.02,SSE,148,9.0,13.0,35,0.00,,,0.00,Wunderground v.1.15,2013-01-27 00:29:00,
2013-01-26 18:35:00,50.7,24.0,30.02,SSE,150,9.0,13.0,35,0.00,,,0.00,Wunderground v.1.15,2013-01-27 00:35:00,
2013-01-26 18:45:00,50.5,24.5,30.02,SE,137,11.0,11.0,36,0.00,,,0.00,Wunderground v.1.15,2013-01-27 00:45:00,
2013-01-26 18:50:00,50.4,24.4,30.02,SE,144,11.0,11.0,36,0.00,,,0.00,Wunderground v.1.15,2013-01-27 00:50:00,
2013-01-26 18:55:00,50.3,24.3,30.02,SSE,148,10.0,13.0,36,0.00,,,0.00,Wunderground v.1.15,2013-01-27 00:55:00,
2013-01-26 19:00:00,50.0,24.7,30.02,SSE,153,10.0,14.0,37,0.00,,,0.00,Wunderground v.1.15,2013-01-27 01:00:00,
2013-01-26 19:05:00,49.8,24.5,30.02,SSE,159,10.0,14.0,37,0.00,,,0.00,Wunderground v.1.15,2013-01-27 01:05:00,
2013-01-26 19:10:00,49.7,24.5,30.02,SSE,155,11.0,11.0,37,0.00,,,0.00,Wunderground v.1.15,2013-01-27 01:10:00,
2013-01-26 19:20:00,49.5,24.9,30.02,SE,140,10.0,13.0,38,0.00,,,0.00,Wunderground v.1.15,2013-01-27 01:20:00,
2013-01-26 19:25:00,49.5,24.9,30.02,SSE,164,10.0,13.0,38,0.00,,,0.00,Wunderground v.1.15,2013-01-27 01:25:00,
2013-01-26 19:34:00,49.1,24.6,30.02,SSE,163,10.0,13.0,38,0.00,,,0.00,Wunderground v.1.15,2013-01-27 01:34:00,
2013-01-26 19:40:00,49.0,24.5,30.02,SE,136,10.0,10.0,38,0.00,,,0.00,Wunderground v.1.15,2013-01-27 01:40:00,
2013-01-26 19:45:00,48.9,25.0,30.02,SE,143,11.0,11.0,39,0.00,,,0.00,Wunderground v.1.15,2013-01-27 01:45:00,
2013-01-26 19:50:00,48.8,24.9,30.02,SSE,150,10.0,13.0,39,0.00,,,0.00,Wunderground v.1.15,2013-01-27 01:50:00,
2013-01-26 19:55:00,48.8,24.9,30.02,SE,128,10.0,13.0,39,0.00,,,0.00,Wunderground v.1.15,2013-01-27 01:55:00,
2013-01-26 20:00:00,48.5,24.6,30.02,SSE,149,9.0,13.0,39,0.00,,,0.00,Wunderground v.1.15,2013-01-27 02:00:00,
2013-01-26 20:05:00,48.3,25.1,30.01,SE,143,8.0,13.0,40,0.00,,,0.00,Wunderground v.1.15,2013-01-27 02:05:00,
2013-01-26 20:10:00,48.2,25.0,30.01,SE,136,9.0,9.0,40,0.00,,,0.00,Wunderground v.1.15,2013-01-27 02:10:00,
2013-01-26 20:15:00,48.1,25.5,30.01,SE,127,10.0,13.0,41,0.00,,,0.00,Wunderground v.1.15,2013-01-27 02:15:00,
2013-01-26 20:20:00,47.9,25.3,30.01,SE,135,9.0,9.0,41,0.00,,,0.00,Wunderground v.1.15,2013-01-27 02:20:00,
2013-01-26 20:25:00,47.5,25.5,30.02,SE,142,8.0,13.0,42,0.00,,,0.00,Wunderground v.1.15,2013-01-27 02:25:00,
2013-01-26 20:30:00,47.3,25.3,30.02,SE,124,7.0,13.0,42,0.00,,,0.00,Wunderground v.1.15,2013-01-27 02:30:00,
2013-01-26 20:39:00,46.6,25.3,30.01,ESE,122,8.0,8.0,43,0.00,,,0.00,Wunderground v.1.15,2013-01-27 02:39:00,
2013-01-26 20:45:00,45.9,25.2,30.01,East,101,7.0,13.0,44,0.00,,,0.00,Wunderground v.1.15,2013-01-27 02:45:00,
2013-01-26 20:50:00,45.2,25.6,30.01,ESE,118,7.0,13.0,46,0.00,,,0.00,Wunderground v.1.15,2013-01-27 02:50:00,
2013-01-26 21:00:00,44.8,25.3,30.01,SE,126,8.0,8.0,46,0.00,,,0.00,Wunderground v.1.15,2013-01-27 03:00:00,
2013-01-26 21:05:00,44.7,25.7,30.00,SE,134,9.0,13.0,47,0.00,,,0.00,Wunderground v.1.15,2013-01-27 03:05:00,
2013-01-26 21:10:00,44.4,25.4,30.00,SE,127,10.0,10.0,47,0.00,,,0.00,Wunderground v.1.15,2013-01-27 03:10:00,
2013-01-26 21:15:00,43.6,25.2,30.00,SE,139,9.0,13.0,48,0.00,,,0.00,Wunderground v.1.15,2013-01-27 03:15:00,
2013-01-26 21:20:00,42.8,25.4,30.00,SE,144,9.0,9.0,50,0.00,,,0.00,Wunderground v.1.15,2013-01-27 03:20:00,
2013-01-26 21:25:00,42.2,25.3,30.00,ESE,117,9.0,13.0,51,0.00,,,0.00,Wunderground v.1.15,2013-01-27 03:25:00,
2013-01-26 21:30:00,41.8,25.4,30.00,ESE,117,9.0,13.0,52,0.00,,,0.00,Wunderground v.1.15,2013-01-27 03:30:00,
2013-01-26 21:35:00,41.8,25.9,30.00,ESE,122,10.0,13.0,53,0.00,,,0.00,Wunderground v.1.15,2013-01-27 03:35:00,
2013-01-26 21:44:00,41.9,26.0,30.00,SSE,149,11.0,13.0,53,0.00,,,0.00,Wunderground v.1.15,2013-01-27 03:44:00,
2013-01-26 21:50:00,41.8,25.9,30.00,SSE,149,10.0,10.0,53,0.00,,,0.00,Wunderground v.1.15,2013-01-27 03:50:00,
2013-01-26 21:55:00,41.7,26.3,30.00,SE,140,10.0,13.0,54,0.00,,,0.00,Wunderground v.1.15,2013-01-27 03:55:00,
2013-01-26 22:00:00,41.8,26.4,30.00,SE,140,10.0,13.0,54,0.00,,,0.00,Wunderground v.1.15,2013-01-27 04:00:00,
2013-01-26 22:10:00,41.9,26.4,30.00,SE,142,10.0,13.0,54,0.00,,,0.00,Wunderground v.1.15,2013-01-27 04:10:00,
2013-01-26 22:15:00,41.9,26.4,30.00,ESE,120,9.0,13.0,54,0.00,,,0.00,Wunderground v.1.15,2013-01-27 04:15:00,
2013-01-26 22:20:00,41.8,26.4,30.00,ESE,120,8.0,13.0,54,0.00,,,0.00,Wunderground v.1.15,2013-01-27 04:20:00,
2013-01-26 22:25:00,41.7,26.3,30.00,SE,130,9.0,13.0,54,0.00,,,0.00,Wunderground v.1.15,2013-01-27 04:25:00,
2013-01-26 22:30:00,41.9,26.4,29.99,ESE,118,10.0,13.0,54,0.00,,,0.00,Wunderground v.1.15,2013-01-27 04:30:00,
2013-01-26 22:40:00,41.9,26.4,30.00,SE,130,9.0,13.0,54,0.00,,,0.00,Wunderground v.1.15,2013-01-27 04:40:00,
2013-01-26 22:49:00,41.8,26.8,29.99,SE,124,9.0,13.0,55,0.00,,,0.00,Wunderground v.1.15,2013-01-27 04:49:00,
2013-01-26 22:55:00,41.8,26.8,29.99,SE,126,8.0,13.0,55,0.00,,,0.00,Wunderground v.1.15,2013-01-27 04:55:00,
2013-01-26 23:00:00,41.9,26.9,29.99,ESE,123,8.0,8.0,55,0.00,,,0.00,Wunderground v.1.15,2013-01-27 05:00:00,
2013-01-26 23:05:00,41.6,26.6,29.99,ESE,109,7.0,13.0,55,0.00,,,0.00,Wunderground v.1.15,2013-01-27 05:05:00,
2013-01-26 23:10:00,41.1,26.6,29.99,East,88,5.0,13.0,56,0.00,,,0.00,Wunderground v.1.15,2013-01-27 05:10:00,
2013-01-26 23:20:00,40.8,26.7,29.99,ESE,123,6.0,13.0,57,0.00,,,0.00,Wunderground v.1.15,2013-01-27 05:20:00,
2013-01-26 23:25:00,40.9,26.8,29.99,ESE,121,7.0,13.0,57,0.00,,,0.00,Wunderground v.1.15,2013-01-27 05:25:00,
2013-01-26 23:30:00,41.3,27.2,29.98,ESE,118,7.0,7.0,57,0.00,,,0.00,Wunderground v.1.15,2013-01-27 05:30:00,
2013-01-26 23:35:00,41.3,27.2,29.98,ESE,111,7.0,8.0,57,0.00,,,0.00,Wunderground v.1.15,2013-01-27 05:35:00,
2013-01-26 23:40:00,41.4,27.3,29.98,SE,132,7.0,13.0,57,0.00,,,0.00,Wunderground v.1.15,2013-01-27 05:40:00,
2013-01-26 23:50:00,42.5,27.0,29.98,SSE,156,9.0,9.0,54,0.00,,,0.00,Wunderground v.1.15,2013-01-27 05:50:00,
2013-01-26 23:55:00,42.6,27.1,29.98,SSE,148,10.0,12.0,54,0.00,,,0.00,Wunderground v.1.15,2013-01-27 05:55:00,